Weather History for KBKV - January, 2013

Change the Weather History Date:

Friday, January 25, 2013

  Actual Average (KTPA) Record (KTPA)
Temperature  
Mean Temperature 58 °F 61 °F  
Max Temperature 75 °F 70 °F 84 °F (2012)
Min Temperature 42 °F 52 °F 29 °F (1905)
Degree Days  
Heating Degree Days 6 6  
Month to date heating degree days 150  
Since 1 July heating degree days 333  
Cooling Degree Days 0 2  
Month to date cooling degree days 48  
Year to date cooling degree days 48  
Growing Degree Days 8 (Base 50)    
Moisture  
Dew Point 45 °F    
Average Humidity 81    
Maximum Humidity 100    
Minimum Humidity 34    
Precipitation  
Precipitation 0.00 in 0.09 in 1.40 in (2011)
Month to date precipitation 1.74  
Year to date precipitation 1.74  
Sea Level Pressure  
Sea Level Pressure 30.29 in    
Wind  
Wind Speed 1 mph (WSW)    
Max Wind Speed 10 mph    
Max Gust Speed -    
Visibility 6 miles    
Events Fog    
T = Trace of Precipitation, MM = Missing Value Source: NWS Daily Summary

Daily Weather History Graph

Daily Weather History Graph

Search for Another Location

Airport or City:

Trip Planner

Search our weather history database for the weather conditions in past years. The results will help you decide how hot, cold, wet, or windy it might be!

Date:

Astronomy

Jan. 25, 2013 Rise Set
Actual Time 7:20 AM EST 6:03 PM EST
Civil Twilight 6:55 AM EST 6:28 PM EST
Nautical Twilight 6:27 AM EST 6:57 PM EST
Astronomical Twilight 5:59 AM EST 7:25 PM EST
Moon 4:59 PM EST (1/25) 5:58 AM EST (1/25)
Length of Visible Light 11h 33m
Length of Day
10h 43m
Waxing Gibbous, 98% of the Moon is Illuminated
Jan 25
Waxing Gibbous
Jan 26
Full
Feb 3
Last Quarter
Feb 10
New
Feb 17
First Quarter

Hourly Weather History & Observations

Time (EST) Temp. Windchill Dew Point Humidity Pressure Visibility Wind Dir Wind Speed Gust Speed Precip Events Conditions
12:16 AM 42.8 °F - 42.8 °F 100% 30.32 in 3.0 mi Calm Calm - N/A   Partly Cloudy
12:23 AM 44.6 °F - 42.8 °F 93% 30.32 in 2.0 mi Calm Calm - N/A   Partly Cloudy
12:33 AM 44.6 °F - 42.8 °F 93% 30.32 in 4.0 mi Calm Calm - N/A   Scattered Clouds
12:53 AM 43.0 °F - 43.0 °F 100% 30.32 in 7.0 mi Calm Calm - N/A   Mostly Cloudy
1:24 AM 44.6 °F 43.1 °F 42.8 °F 93% 30.31 in 10.0 mi South 3.5 mph - N/A   Overcast
1:34 AM 44.6 °F - 42.8 °F 93% 30.31 in 1.8 mi Calm Calm - N/A   Overcast
1:41 AM 44.6 °F - 42.8 °F 93% 30.32 in 3.0 mi Calm Calm - N/A   Overcast
1:53 AM 44.1 °F - 43.0 °F 96% 30.31 in 6.0 mi Calm Calm - N/A   Overcast
2:04 AM 44.6 °F - 42.8 °F 93% 30.31 in 1.2 mi Calm Calm - N/A   Overcast
2:12 AM 44.6 °F - 42.8 °F 93% 30.31 in 0.5 mi Calm Calm - N/A Fog Fog
2:53 AM 44.1 °F 42.5 °F 43.0 °F 96% 30.29 in 0.2 mi NNE 3.5 mph - N/A Fog Fog
3:53 AM 42.1 °F - 42.1 °F 100% 30.28 in 0.2 mi Calm Calm - N/A Fog Fog
4:53 AM 43.0 °F - 43.0 °F 100% 30.29 in 0.2 mi Calm Calm - N/A Fog Fog
5:53 AM 43.0 °F - 43.0 °F 100% 30.30 in 0.5 mi Calm Calm - N/A Fog Fog
6:53 AM 44.1 °F - 44.1 °F 100% 30.32 in 0.2 mi Calm Calm - N/A Fog Fog
7:53 AM 44.1 °F - 44.1 °F 100% 30.32 in 0.2 mi Calm Calm - N/A Fog Fog
8:33 AM 46.4 °F - 46.4 °F 100% 30.33 in 1.8 mi Calm Calm - N/A   Mostly Cloudy
8:35 AM 46.4 °F - 46.4 °F 100% 30.33 in 3.0 mi Calm Calm - N/A   Mostly Cloudy
8:45 AM 48.2 °F - 48.2 °F 100% 30.33 in 3.0 mi Calm Calm - N/A   Scattered Clouds
8:53 AM 50.0 °F - 50.0 °F 100% 30.33 in 5.0 mi Calm Calm - N/A   Partly Cloudy
9:53 AM 61.0 °F - 55.0 °F 81% 30.34 in 10.0 mi Calm Calm - N/A   Clear
10:53 AM 69.1 °F - 52.0 °F 54% 30.33 in 10.0 mi NE 3.5 mph - N/A   Clear
11:53 AM 72.0 °F - 46.9 °F 41% 30.31 in 10.0 mi Calm Calm - N/A   Clear
12:53 PM 73.0 °F - 46.0 °F 38% 30.27 in 10.0 mi Variable 4.6 mph - N/A   Partly Cloudy
1:53 PM 73.9 °F - 45.0 °F 35% 30.24 in 10.0 mi SE 9.2 mph - N/A   Clear
2:53 PM 75.0 °F - 45.0 °F 34% 30.22 in 10.0 mi SSW 8.1 mph - N/A   Clear
3:53 PM 73.0 °F - 43.0 °F 34% 30.21 in 10.0 mi West 10.4 mph - N/A   Clear
4:53 PM 70.0 °F - 42.1 °F 36% 30.22 in 10.0 mi West 9.2 mph - N/A   Clear
5:53 PM 66.0 °F - 45.0 °F 47% 30.23 in 10.0 mi West 5.8 mph - N/A   Clear
6:53 PM 57.9 °F - 46.9 °F 67% 30.24 in 10.0 mi NW 3.5 mph - N/A   Clear
7:53 PM 55.0 °F - 48.0 °F 77% 30.25 in 10.0 mi Calm Calm - N/A   Clear
8:53 PM 48.9 °F - 45.0 °F 86% 30.24 in 10.0 mi Calm Calm - N/A   Clear
9:53 PM 46.9 °F - 45.0 °F 93% 30.24 in 10.0 mi Calm Calm - N/A   Clear
10:53 PM 43.0 °F - 41.0 °F 93% 30.25 in 7.0 mi Calm Calm - N/A   Clear
11:53 PM 43.0 °F - 41.0 °F 93% 30.26 in 6.0 mi Calm Calm - N/A   Mist